Voltar ao catálogo

CZ-6A DEB

AtivoPO
NORAD 61432·DEBRIS·🇨🇳 China

Lançado Aug 6, 2024 de Taiyuan Satellite Launch Center

Loading…

Próximas Passagens (próximas 24 horas)

TLE

AtualizadoSource: Space-Track

Época: Sep 14, 2026, 17:41 UTC

1 61432U 24140YZ  26257.73722623  .00005493  00000-0  40290-3 0  9990
2 61432  89.0828 263.7414 0150765 175.5851 184.6754 14.94569333111900

Acompanhe CZ-6A DEB em tempo real com AllMySat

Download on the App Store